Weather History for KAFN - July, 2014

Change the Weather History Date:

Monday, July 14, 2014

  Actual Average Record
Temperature  
Mean Temperature 76 °F -  
Max Temperature 84 °F 75 °F 91 °F (2012)
Min Temperature 69 °F 55 °F 50 °F (1999)
Cooling Degree Days 10    
Growing Degree Days 26 (Base 50)    
Moisture  
Dew Point 66 °F    
Average Humidity 78    
Maximum Humidity 94    
Minimum Humidity 46    
Precipitation  
Precipitation 0.00 in - - ()
Sea Level Pressure  
Sea Level Pressure 29.92 in    
Wind  
Wind Speed 6 mph (SSW)    
Max Wind Speed 13 mph    
Max Gust Speed 16 mph    
Visibility 10 miles    
Events Rain    
Averages and records for this station are not official NWS values.
T = Trace of Precipitation, MM = Missing Value Source: NWS Daily Summary

Daily Weather History Graph

Daily Weather History Graph

Search for Another Location

Airport or City:

Trip Planner

Search our weather history database for the weather conditions in past years. The results will help you decide how hot, cold, wet, or windy it might be!

Date:

Astronomy

Jul. 14, 2014 Rise Set
Actual Time 5:22 AM EDT 8:25 PM EDT
Civil Twilight 4:48 AM EDT 8:59 PM EDT
Nautical Twilight 4:04 AM EDT 9:42 PM EDT
Astronomical Twilight 3:13 AM EDT 10:33 PM EDT
Moon 9:47 PM EDT (7/14) 8:06 AM EDT (7/14)
Length of Visible Light 16h 10m
Length of Day
15h 02m
Waning Gibbous, 93% of the Moon is Illuminated
Jul 14
Waning Gibbous
Jul 18
Last Quarter
Jul 26
New
Aug 3
First Quarter
Aug 10
Full

Hourly Weather History & Observations

Time (EDT) Temp. Heat Index Dew Point Humidity Pressure Visibility Wind Dir Wind Speed Gust Speed Precip Events Conditions
12:04 AM 70.0 °F - 66.9 °F 90% 29.92 in 10.0 mi SSW 8.1 mph 16.1 mph 0.00 in Rain Light Rain
12:48 AM 69.8 °F - 68.0 °F 94% 29.91 in 8.0 mi SSW 10.4 mph - 0.00 in   Overcast
12:52 AM 70.0 °F - 68.0 °F 93% 29.91 in 8.0 mi SSW 12.7 mph - 0.00 in   Overcast
2:04 AM 71.1 °F - 68.0 °F 90% 29.90 in 10.0 mi Variable 6.9 mph - N/A   Overcast
2:52 AM 71.1 °F - 68.0 °F 90% 29.90 in 10.0 mi SW 6.9 mph - N/A   Overcast
3:52 AM 71.1 °F - 68.0 °F 90% 29.89 in 10.0 mi Calm Calm - N/A   Overcast
4:52 AM 70.0 °F - 68.0 °F 93% 29.91 in 10.0 mi Variable 3.5 mph - N/A   Overcast
5:19 AM 70.0 °F - 68.0 °F 93% 29.90 in 10.0 mi South 3.5 mph - N/A   Mostly Cloudy
5:52 AM 70.0 °F - 66.9 °F 90% 29.90 in 9.0 mi Calm Calm - N/A   Scattered Clouds
6:50 AM 71.6 °F - 68.0 °F 88% 29.94 in 10.0 mi South 6.9 mph - N/A   Partly Cloudy
6:52 AM 71.1 °F - 68.0 °F 90% 29.94 in 10.0 mi South 6.9 mph - N/A   Scattered Clouds
7:14 AM 70.0 °F - 66.9 °F 90% 29.95 in 10.0 mi SW 5.8 mph - N/A   Mostly Cloudy
7:52 AM 72.0 °F - 66.0 °F 81% 29.95 in 10.0 mi WSW 3.5 mph - N/A   Mostly Cloudy
8:00 AM 72.0 °F - 66.0 °F 81% 29.95 in 10.0 mi SSW 4.6 mph - N/A   Partly Cloudy
8:35 AM 73.9 °F - 66.0 °F 76% 29.95 in 10.0 mi South 6.9 mph - N/A   Mostly Cloudy
8:52 AM 73.9 °F - 64.9 °F 73% 29.95 in 10.0 mi SSW 4.6 mph - N/A   Mostly Cloudy
9:17 AM 75.9 °F - 64.9 °F 69% 29.95 in 10.0 mi Calm Calm - N/A   Scattered Clouds
9:52 AM 77.0 °F - 64.9 °F 66% 29.94 in 10.0 mi Variable 3.5 mph - N/A   Scattered Clouds
10:52 AM 79.0 °F - 63.0 °F 58% 29.94 in 10.0 mi Calm Calm - N/A   Scattered Clouds
11:52 AM 80.1 °F 81.5 °F 63.0 °F 56% 29.94 in 10.0 mi South 8.1 mph - N/A   Partly Cloudy
12:52 PM 82.9 °F 83.2 °F 60.1 °F 46% 29.93 in 10.0 mi South 6.9 mph - N/A   Clear
1:52 PM 82.9 °F 83.2 °F 60.1 °F 46% 29.92 in 10.0 mi SSE 5.8 mph - N/A   Clear
3:52 PM 82.9 °F 83.3 °F 61.0 °F 47% 29.90 in 10.0 mi SSW 8.1 mph - N/A   Clear
4:52 PM 81.0 °F 82.7 °F 64.9 °F 58% 29.90 in 10.0 mi South 8.1 mph - 0.00 in Rain Light Rain
5:52 PM 78.1 °F - 66.0 °F 66% 29.89 in 10.0 mi SSW 8.1 mph - 0.00 in   Clear
6:52 PM 75.9 °F - 69.1 °F 79% 29.91 in 10.0 mi SSW 8.1 mph - 0.00 in Rain Light Rain
7:52 PM 73.9 °F - 66.9 °F 79% 29.91 in 10.0 mi South 5.8 mph - 0.00 in   Mostly Cloudy
8:52 PM 73.0 °F - 66.9 °F 81% 29.90 in 10.0 mi SSW 4.6 mph - N/A   Mostly Cloudy
9:04 PM 72.0 °F - 66.9 °F 84% 29.91 in 10.0 mi SW 4.6 mph - N/A   Scattered Clouds
9:52 PM 72.0 °F - 66.9 °F 84% 29.91 in 10.0 mi SSW 5.8 mph - N/A   Mostly Cloudy
10:40 PM 71.1 °F - 66.0 °F 84% 29.92 in 10.0 mi SSW 5.8 mph - N/A   Mostly Cloudy
11:40 PM 71.1 °F - 66.0 °F 84% 29.91 in 10.0 mi SSW 3.5 mph - 0.00 in Rain Light Rain
11:52 PM 71.1 °F - 66.0 °F 84% 29.91 in 10.0 mi SSW 3.5 mph - 0.00 in   Overcast